Regional Weather Roundup
Issued by NWS Mobile, AL

Home | Current Version | Previous Version | Text Only | Print | Product List | Glossary On
Versions: 1 2 3 4 5 6 7 8 9 10 11 12 13 14 15 16 17 18 19 20 21 22 23 24 25 26 27 28 29 30 31 32 33 34 35 36 37 38 39 40 41 42 43 44 45 46 47 48 49
699
ASUS44 KMOB 240712
RWRMOB
REGIONAL WEATHER ROUNDUP
NATIONAL WEATHER SERVICE MOBILE AL
100 AM CST FRI NOV 24 2017

NOTE: "FAIR" INDICATES FEW OR NO CLOUDS BELOW 12,000 FEET WITH NO
      SIGNIFICANT WEATHER AND/OR OBSTRUCTIONS TO VISIBILITY.

  * THESE STATIONS ARE PART OF THE UNIVERSITY OF SOUTH ALABAMA
    MESONET AND ARE NOT UNDER NWS OR FAA QUALITY CONTROL.

ALZ061>064-240800-
COASTAL ALABAMA

CITY           SKY/WX    TMP DP  RH WIND       PRES   REMARKS
MOBILE REG APT CLEAR     41  28  60 N5        30.01S
BROOKLEY FIELD CLEAR     43  32  65 N5        30.02F
USA CAMPUS*    NOT AVBL
DOG RIVER*     NOT AVBL


CITY           SKY/WX    TMP DP  RH WIND       PRES   REMARKS
GULF SHORES    CLEAR     45  32  61 N3        29.99F

$$

ALZ051>060-240800-
INTERIOR SOUTHWEST AND SOUTH CENTRAL ALABAMA

CITY           SKY/WX    TMP DP  RH WIND       PRES   REMARKS
GREENVILLE     PTCLDY    42  34  73 N5        29.98F
EVERGREEN      PTCLDY    39  34  82 NW3       30.00F
ATMORE*          N/A    N/A N/A N/A N8          N/A
ANDALUSIA/OPP  PTCLDY    47  37  68 CALM      29.98F
ANDALUSIA*       N/A     45  37  76 CALM      29.97F
FLORALA APT    PTCLDY    43  38  82 CALM      30.00F
FLORALA*         N/A     43  39  87 CALM      30.66S

$$

FLZ001>006-240800-
WESTERN FLORIDA PANHANDLE

CITY           SKY/WX    TMP DP  RH WIND       PRES   REMARKS
PENSACOLA      PTCLDY    49  32  52 N7        29.98F
NAS PENSACOLA  PTCLDY    47  32  56 N7        29.98S
MILTON         NOT AVBL
WHTNG S FIELD  PTCLDY    48  31  51 N6        29.98


CITY           SKY/WX    TMP DP  RH WIND       PRES   REMARKS
JAY*             N/A     43  32  65 VRB6      29.99F
DUKE FIELD     CLEAR     44  36  72 CALM      29.97F
CRESTVIEW      CLEAR     43  36  76 CALM      29.99F
VALPARAISO     PTCLDY    50  35  56 N7        29.97S
DESTIN         PTCLDY    56  38  50 N7        29.97F

$$

MSZ076-079-240800-
INTERIOR SOUTHEAST MISSISSIPPI

CITY           SKY/WX    TMP DP  RH WIND       PRES   REMARKS
LEAKESVILLE*     N/A     36  32  87 CALM      30.03F
AGRICOLA*        N/A     41  28  60 CALM      30.00F

$$

MARINE OBSERVATIONS

STATION/POSITION TIME  TEMP    WIND        PRES    WAVE
                       AIR SEA DIR/SP/G            HT/PER
                 (UTC) (F)     (DEG/KT/KT) (MB)    (FT/S)
PASCAGOULA       0648          350/  7/  8 1015.9F
PETIT BOIS ISLND 0648           10/ 13/ 16 1016.6F
GRAND BAY        0545   45                   N/A
KATRINA CUT      0630   52      10/ 12     1015.9F
CEDAR POINT      0630   48      10/  7     1015.2F
E DAUPHIN ISLAND 0600   55      10/ 15/ 16 1015.9F
MIDDLE BAY LIGHT 0630   53     360/ 17     1015.2F
USCG MOBILE BAY  0636      65  330/  4/  5 1016.1F
STATE DOCKS      0636      66              1016.0F
MEAHER PARK      0630   45      20/  2     1016.3S
WEEKS BAY        0545   41                 1016.0S
FORT MORGAN      0648           20/ 14/ 15   N/A
12 S ORANGE BCH  NOT AVBL
PENSACOLA BAY    0636      63              1015.3F
64 S DAUPHIN ISL 0700   63 77   20/ 12/ 16 1015.5
67 S FORT MORGAN 0630   63      20/ 10     1015.2S

$$

SELECTED LOCATIONS ACROSS THE REGION

CITY           SKY/WX    TMP DP  RH WIND       PRES   REMARKS
NEW ORLEANS    CLEAR     50  39  66 N3        30.03F
GULFPORT       CLEAR     38  34  85 CALM      30.02F
PASCAGOULA AP  PTCLDY    32  29  88 CALM      30.01F
PASCAGOULA*      N/A     43  34  70 N2          N/A
HATTIESBURG    PTCLDY    33  32  96 CALM      30.04F
LAUREL         PTCLDY    31  28  89 CALM      30.04F
MERIDIAN       CLEAR     31  29  92 CALM      30.04S
JACKSON        CLEAR     35  29  78 CALM      30.04F
MONTGOMERY     CLEAR     39  35  86 CALM      30.01S
TROY           CLEAR     41  40  96 CALM      30.00S
ASHFORD*         N/A     45  37  76 CALM      29.97F
DOTHAN         PTCLDY    46  45  96 NE3       30.01F
PANAMA CITY    CLEAR     50  45  83 N5        29.96S

$$





USA.gov is the U.S. government's official web portal to all federal, state and local government web resources and services.